Location: A�t Bou Chrif
(32.7193°N, 5.2385°W)
Time: 23:23:29
(UTC+00:00)

Skynet4D Del rocket - Pass Details

Date: 08 August 2020
Orbit: 763 x 1291 km, 26.9° (Epoch: 18 September)

Event Time Altitude Azimuth Distance (km) Brightness Sun altitude
Rises 20:58:36 0° 250° (WSW) 3,224 7.2 -20.6°
Reaches altitude 10° 21:01:04 10° 244° (WSW) 2,325 6.3 -21.0°
Maximum altitude 21:06:16 45° 172° (S) 1,112 4.0 -21.9°
Enters shadow 21:06:48 44° 157° (SSE) 1,139 3.9 -22.0°
